Weather History for Frederick, MD

Change the Weather History Date:

Friday, February 8, 2013

  Actual Average (KHGR) Record (KHGR)
Temperature  
Mean Temperature 34 °F -  
Max Temperature 39 °F 39 °F 62 °F (2009)
Min Temperature 30 °F 24 °F 10 °F (2007)
Degree Days  
Heating Degree Days 30    
Moisture  
Dew Point 31 °F    
Average Humidity 89    
Maximum Humidity 100    
Minimum Humidity 70    
Precipitation  
Precipitation 0.01 in - - ()
Sea Level Pressure  
Sea Level Pressure 30.00 in    
Wind  
Wind Speed 8 mph (North)    
Max Wind Speed 26 mph    
Max Gust Speed 37 mph    
Visibility 8 miles    
Events Rain , Snow    
Averages and records for this station are not official NWS values.
T = Trace of Precipitation, MM = Missing Value Source: NWS Daily Summary

Daily Weather History Graph

Daily Weather History Graph

Search for Another Location

Airport:

Trip Planner

Search our weather history database for the weather conditions in past years. The results will help you decide how hot, cold, wet, or windy it might be!

Date:

Astronomy

Feb. 08, 2013 Rise Set
Actual Time 7:09 AM EST 5:38 PM EST
Civil Twilight 6:41 AM EST 6:06 PM EST
Nautical Twilight 6:09 AM EST 6:38 PM EST
Astronomical Twilight 5:38 AM EST 7:09 PM EST
Moon 5:36 AM EST (2/8) 4:09 PM EST (2/8)
Length of Visible Light 11h 24m
Length of Day
10h 28m
Waning Crescent, 3% of the Moon is Illuminated
Feb 8
Waning Crescent
Feb 10
New
Feb 17
First Quarter
Feb 25
Full
Mar 4
Last Quarter

Hourly Weather History & Observations

Time (EST) Temp. Windchill Dew Point Humidity Pressure Visibility Wind Dir Wind Speed Gust Speed Precip Events Conditions
12:00 AM 33.8 °F 30.8 °F 30.2 °F 87% 30.25 in 10.0 mi NE 3.5 mph - N/A   Overcast
12:20 AM 33.8 °F 30.8 °F 30.2 °F 87% 30.24 in 10.0 mi NNE 3.5 mph - N/A   Overcast
12:40 AM 33.8 °F 29.6 °F 30.2 °F 87% 30.23 in 10.0 mi NNE 4.6 mph - N/A   Overcast
1:00 AM 33.8 °F 29.6 °F 30.2 °F 87% 30.20 in 10.0 mi NNE 4.6 mph - N/A   Overcast
1:20 AM 33.8 °F 28.6 °F 30.2 °F 87% 30.19 in 10.0 mi North 5.8 mph - N/A   Overcast
1:40 AM 33.8 °F 27.7 °F 30.2 °F 87% 30.18 in 10.0 mi NNE 6.9 mph - N/A   Overcast
2:00 AM 33.8 °F 27.7 °F 30.2 °F 87% 30.17 in 10.0 mi NNE 6.9 mph - N/A   Overcast
2:20 AM 32.0 °F 26.4 °F 30.2 °F 93% 30.16 in 10.0 mi North 5.8 mph - N/A   Overcast
2:40 AM 33.8 °F 28.6 °F 30.2 °F 87% 30.15 in 10.0 mi North 5.8 mph - N/A   Overcast
3:00 AM 32.0 °F 25.6 °F 30.2 °F 93% 30.14 in 10.0 mi North 6.9 mph - N/A   Overcast
3:20 AM 32.0 °F 25.6 °F 30.2 °F 93% 30.14 in 10.0 mi North 6.9 mph - N/A   Overcast
3:40 AM 32.0 °F 24.8 °F 28.4 °F 87% 30.12 in 10.0 mi NNE 8.1 mph - N/A   Overcast
4:00 AM 32.0 °F 24.8 °F 28.4 °F 87% 30.11 in 10.0 mi NNE 8.1 mph - N/A   Overcast
4:20 AM 32.0 °F 26.4 °F 30.2 °F 93% 30.11 in 5.0 mi NNE 5.8 mph - N/A Snow Light Snow
4:40 AM 32.0 °F 24.8 °F 32.0 °F 100% 30.10 in 5.0 mi North 8.1 mph - N/A Snow Light Snow
5:00 AM 32.0 °F 26.4 °F 32.0 °F 100% 30.10 in 7.0 mi North 5.8 mph - N/A Snow Light Snow
5:20 AM 32.0 °F 25.6 °F 32.0 °F 100% 30.09 in 3.0 mi North 6.9 mph - 0.01 in Snow Light Snow
5:40 AM 32.0 °F 25.6 °F 32.0 °F 100% 30.08 in 3.0 mi North 6.9 mph - 0.01 in Snow Light Snow
5:45 AM 32.0 °F 27.5 °F 32.0 °F 100% 30.07 in 4.0 mi North 4.6 mph - 0.01 in Snow Light Snow
7:45 AM 30.2 °F 23.4 °F 30.2 °F 100% 30.02 in 5.0 mi NNE 6.9 mph - N/A   Overcast
9:55 AM 33.8 °F 27.0 °F 32.0 °F 93% 29.95 in 5.0 mi NNE 8.1 mph - N/A   Overcast
10:55 AM 33.8 °F 25.8 °F 33.8 °F 100% 29.92 in 5.0 mi North 10.4 mph - N/A   Overcast
11:45 AM 35.6 °F 29.2 °F 35.6 °F 100% 29.89 in 3.0 mi North 8.1 mph - N/A   Overcast
12:50 PM 37.4 °F 30.8 °F 37.4 °F 100% 29.84 in 3.0 mi NE 9.2 mph - N/A   Overcast
1:45 PM 37.4 °F 31.4 °F 37.4 °F 100% 29.83 in 3.0 mi NNW 8.1 mph - N/A   Overcast
2:50 PM 37.4 °F 34.9 °F 37.4 °F 100% 29.80 in 2.5 mi Variable 3.5 mph - N/A   Overcast
3:45 PM 37.4 °F - 37.4 °F 100% 29.80 in 2.5 mi Calm Calm - N/A Rain Light Rain
4:10 PM 37.4 °F - 37.4 °F 100% 29.80 in 3.0 mi Calm Calm - N/A   Overcast
4:45 PM 37.4 °F - 37.4 °F 100% 29.81 in 5.0 mi Calm Calm - N/A   Overcast
5:45 PM 37.4 °F 30.8 °F 37.4 °F 100% 29.82 in 5.0 mi NW 9.2 mph - N/A   Mostly Cloudy
6:45 PM 39.2 °F 32.0 °F 35.6 °F 87% 29.83 in 7.0 mi WNW 11.5 mph 18.4 mph N/A   Overcast
7:50 PM 37.4 °F 28.2 °F 30.2 °F 75% 29.86 in 10.0 mi WNW 16.1 mph 25.3 mph N/A   Overcast
8:10 PM 35.6 °F 24.5 °F 30.2 °F 81% 29.87 in 10.0 mi WNW 20.7 mph 26.5 mph N/A   Overcast
8:30 PM 35.6 °F 24.0 °F 30.2 °F 81% 29.87 in 10.0 mi WNW 23.0 mph 31.1 mph N/A   Overcast
8:50 PM 35.6 °F 25.2 °F 28.4 °F 75% 29.89 in 10.0 mi WNW 18.4 mph 31.1 mph N/A   Overcast
9:10 PM 35.6 °F 24.2 °F 28.4 °F 75% 29.90 in 10.0 mi NW 21.9 mph 29.9 mph N/A   Overcast
9:30 PM 33.8 °F 22.2 °F 28.4 °F 81% 29.90 in 10.0 mi WNW 20.7 mph 31.1 mph N/A   Overcast
9:50 PM 33.8 °F 22.5 °F 26.6 °F 75% 29.91 in 10.0 mi NW 19.6 mph 26.5 mph N/A   Overcast
10:10 PM 33.8 °F 21.6 °F 26.6 °F 75% 29.93 in 10.0 mi WNW 23.0 mph 34.5 mph N/A   Overcast
10:30 PM 33.8 °F 20.8 °F 24.8 °F 70% 29.92 in 10.0 mi WNW 26.5 mph 36.8 mph N/A   Overcast
10:50 PM 32.0 °F 21.2 °F 24.8 °F 75% 29.93 in 10.0 mi NW 16.1 mph 33.4 mph N/A   Mostly Cloudy
11:10 PM 32.0 °F 21.6 °F 24.8 °F 75% 29.94 in 10.0 mi WNW 15.0 mph 23.0 mph N/A   Mostly Cloudy
11:30 PM 32.0 °F 20.5 °F 24.8 °F 75% 29.96 in 10.0 mi NW 18.4 mph 25.3 mph N/A   Overcast
11:50 PM 32.0 °F 20.5 °F 24.8 °F 75% 29.96 in 10.0 mi NW 18.4 mph 36.8 mph N/A   Overcast